Terminal Aerodrome Forecast
Issued by NWS

Home | Current Version | Previous Version | Text Only | Print | Product List | Glossary On
Versions: 1 2 3 4 5 6 7 8 9 10 11 12 13 14 15 16
000
FTUS45 KVEF 230500
TAFBIH
TAF
KBIH 230520Z 2306/2406 15009KT P6SM SKC
     FM230900 33006KT P6SM SKC
     FM231800 17012G20KT P6SM FEW110
     FM240200 16010KT P6SM SKC=

USA.gov is the U.S. government's official web portal to all federal, state and local government web resources and services.